Regional Weather Roundup
Issued by NWS Kansas City/Pleasant Hill, MO

Home | Current Version | Previous Version | Graphics & Text | Print | Product List | Glossary Off
Versions: 1 2 3 4 5 6 7 8 9 10 11 12 13 14 15 16 17 18 19 20 21 22 23 24 25 26 27 28 29 30 31 32 33 34 35 36 37 38 39 40 41 42 43 44 45 46 47 48 49 50

000
ASUS43 KEAX 290104
RWREAX

WEATHER ROUNDUP FOR EASTERN KANSAS AND NORTHWEST MISSOURI
NATIONAL WEATHER SERVICE KANSAS CITY/PLEASANT HILL MO
800 PM CDT MON JUL 28 2014

KSZ040-057-103>105-MOZ028-029-037-043-290200-
...KANSAS CITY METROPOLITAN AREA...

CITY           SKY/WX    TMP DP  RH WIND       PRES   REMARKS
K.C. INTL      PTCLDY    73  62  68 N5        30.16S
K.C. DOWNTOWN  CLEAR     77  59  53 N8        30.14S
LEES SUMMIT    CLEAR     75  57  53 N9        30.15S
OLATHE - IXD   CLEAR     75  57  53 N8        30.16S
OLATHE - OJC   PTCLDY    76  57  51 N12       30.15R
LAWRENCE       CLEAR     76  59  55 N7        30.15S

$$

MOZ001>008-011>017-020>025-030>033-038>040-044>046-053-054-290200-
...NORTHERN AND CENTRAL MISSOURI...

CITY           SKY/WX    TMP DP  RH WIND       PRES   REMARKS
ST. JOSEPH     CLEAR     74  61  63 NW5       30.15F
MOSBY          CLEAR     75  59  57 NW5       30.14S
WHITEMAN AFB   PTCLDY    73  50  44 N6        30.13S
CLINTON        CLEAR     75  63  64 NE8       30.13S
SEDALIA        CLEAR     72  59  63 N6        30.14S
WARSAW         NOT AVBL
MARSHALL       CLEAR     75  59  57 NE5       30.14S
CHILLICOTHE      N/A     75  58  55 CALM      30.15S
KIRKSVILLE     CLEAR     70  57  63 CALM      30.15F

$$

MOZ041-047>049-056>058-063>065-088>090-097-290200-
...EASTERN AND SOUTHERN MISSOURI...

CITY           SKY/WX    TMP DP  RH WIND       PRES   REMARKS
ST. LOUIS INTL MOCLDY    72  55  55 N9        30.11S
SPIRIT OF STL  MOCLDY    73  53  49 N10       30.10S
COLUMBIA       CLEAR     71  55  56 N7        30.14S
JEFFERSON CITY CLEAR     74  53  48 N7        30.12S
HANNIBAL       CLEAR     70  54  56 N3        30.13F
ROLLA          PTCLDY    72  55  55 N9G20     30.11R
LEBANON        CLEAR     75  55  50 N10       30.13S
OSAGE BEACH    CLEAR     73  55  53 N3        30.12R
SPRINGFIELD    CLEAR     76  56  49 N10       30.12S
BRANSON        CLEAR     81  55  41 N12       30.12S
NEVADA         CLEAR     75  59  57 N5        30.14S
JOPLIN         CLEAR     79  57  46 N6        30.13S
WEST PLAINS    CLEAR     76  56  49 N6        30.10R
MALDEN         CLEAR     79  63  57 NE6       30.04S

$$

IAZ060-094-KSZ022-034>040-054-083-096-NEZ052-066-093-290200-
...KANSAS...SOUTHEAST NEBRASKA AND IOWA...

CITY           SKY/WX    TMP DP  RH WIND       PRES   REMARKS
TOPEKA         CLEAR     78  57  48 N8        30.16S
MANHATTAN      CLEAR     80  55  42 N8        30.16S
EMPORIA        CLEAR     79  52  38 N8        30.15S
CHANUTE        CLEAR     78  56  46 N6        30.13S
WICHITA        PTCLDY    83  55  38 N9        30.14F
OMAHA          PTCLDY    75  55  49 NW8       30.17S
LINCOLN        CLEAR     76  53  44 N9        30.20F
FALLS CITY     CLEAR     74  56  53 N3        30.16S
LAMONI         CLOUDY    71  59  65 N5        30.15S
DES MOINES     MOCLDY    71  58  63 N6        30.15S

$$



USA.gov is the U.S. government's official web portal to all federal, state and local government web resources and services.